This is the latest recevied weather packets stored in our database for station/object VK6WB. If no packets are shown the sender has not sent any weather packets the latest 10 day(s).
| Time | Temp. | Humidity | Pressure | Rain* | Wind** | Luminosity | Snow |
|---|---|---|---|---|---|---|---|
| 1777695004 | 17.78° C | 34% | 1022 hPa | 0 mm | - | 10 W/m² | - |
| 1777694405 | 17.22° C | 33% | 1022 hPa | 0 mm | - | 10 W/m² | - |
| 1777693805 | 17.22° C | 33% | 1022.1 hPa | 0 mm | - | 10 W/m² | - |
| 1777693204 | 17.22° C | 31% | 1022.1 hPa | 0 mm | - | 10 W/m² | - |
| 1777692605 | 17.22° C | 30% | 1022.5 hPa | 0 mm | - | 10 W/m² | - |
| 1777692004 | 17.22° C | 30% | 1022.5 hPa | 0 mm | - | 10 W/m² | - |
| 1777691404 | 17.22° C | 28% | 1022.5 hPa | 0 mm | - | 10 W/m² | - |
| 1777690805 | 16.67° C | 28% | 1022.6 hPa | 0 mm | - | 10 W/m² | - |
| 1777690204 | 16.67° C | 27% | 1022.5 hPa | 0 mm | - | 10 W/m² | - |
| 1777689604 | 16.67° C | 23% | 1022.5 hPa | 0 mm | - | 10 W/m² | - |
| 1777689004 | 16.67° C | 22% | 1022.6 hPa | 0 mm | - | 10 W/m² | - |
| 1777688404 | 16.67° C | 23% | 1022.6 hPa | 0 mm | - | 10 W/m² | - |
| 1777687804 | 16.67° C | 20% | 1022.8 hPa | 0 mm | - | 10 W/m² | - |
| 1777687205 | 16.67° C | 19% | 1022.7 hPa | 0 mm | - | 10 W/m² | - |
| 1777686604 | 16.11° C | 16% | 1022.6 hPa | 0 mm | - | 10 W/m² | - |
| 1777686004 | 16.11° C | 15% | 1022.8 hPa | 0 mm | - | 10 W/m² | - |
| 1777685404 | 3.89° C | 18% | 1022.8 hPa | 0 mm | - | 10 W/m² | - |
| 1777684804 | 15° C | 16% | 1022.7 hPa | 0 mm | - | 10 W/m² | - |
| 1777684204 | 8.33° C | 15% | 1022.7 hPa | 0 mm | - | 10 W/m² | - |
| 1777683604 | 13.89° C | 14% | 1022.6 hPa | 0 mm | - | 10 W/m² | - |
| 1777683004 | 13.33° C | 15% | 1022.7 hPa | 0 mm | - | 10 W/m² | - |
| 1777682404 | 12.22° C | 16% | 1022.7 hPa | 0 mm | - | 10 W/m² | - |
| 1777681805 | 12.22° C | 14% | 1022.5 hPa | 0 mm | - | 10 W/m² | - |
| 1777681204 | 11.67° C | 16% | 1022.5 hPa | 0 mm | - | 10 W/m² | - |
| 1777680604 | 11.67° C | 14% | 1022.3 hPa | 0 mm | - | 10 W/m² | - |
* Rain latest hour (hover to see other rain measurements)
** Current wind speed in m/s (hover to see current wind gust speed)